[[{"header":{"parameterUnit":"m.s-1","parameterCategory":1,"la1":30.2991,"la2":30.254,"lo1":-89.0895,"lo2":-89.0444,"dx":0.0017,"dy":0.0017,"nx":28,"ny":28,"refTime":"2023-01-10T15:00:00:Z","depth":0,"parameterNumber":2,"parameterNumberName":"U-component_of_WINDS"},"data":[0,0,0,0,0,0,0,0,0,0,0,0,0,0,0,0,0,0,0,0,0,0,0,0,0,0,0,0,0,0,0,0,0,0,0,0,0,0,0,0,0,0,0,0,0,0,0,0,0,0,0,0,0,0,0,0,0,0,0.0825,0.0825,0,0.0782,0.0781,0.0781,0.074,0.074,0.0739,0.0739,0.0696,0.0695,0.0694,0,0,0,0,0,0,0,0,0,0,0,0,0,0.0876,0.0875,0.0826,0.0825,0.0824,0.0782,0.0781,0.0781,0.0741,0.074,0.0739,0.0739,0.0696,0.0695,0.0694,0,0,0,0,0,0,0,0,0,0,0,0,0,0.0845,0.0875,0.0826,0.0799,0.0796,0.0782,0.0781,0.0781,0.0741,0.074,0.0739,0.0739,0.0696,0.0695,0.0694,0.0703,0,0,0.0691,0.0691,0,0,0,0,0,0,0,0,0.0847,0.0844,0.0804,0.0801,0.0798,0.0766,0.0783,0.0755,0.0741,0.0762,0.0739,0.0738,0.072,0.0717,0.071,0.0701,0.0699,0.0691,0.069,0.069,0.069,0,0,0,0,0,0,0,0.0849,0.0845,0.0808,0.0803,0.08,0.079,0.0785,0.0778,0.0746,0.076,0.0757,0.0752,0.0718,0.0711,0.0709,0.0698,0.0691,0.069,0.069,0.0689,0.0695,0.0696,0,0,0,0,0,0,0.0855,0.0847,0.081,0.0807,0.0821,0.079,0.0784,0.0777,0.0746,0.074,0.0753,0.0751,0.0714,0.071,0.0707,0.0716,0.069,0.0689,0.0688,0.0694,0.0695,0.0696,0,0,0,0,0,0,0.0857,0.0852,0.0811,0.0826,0.082,0.079,0.0782,0.0776,0.077,0.074,0.0735,0.0752,0.0713,0.0709,0.0704,0.0714,0.0689,0.0688,0.0694,0.0695,0.0696,0.0734,0,0,0,0,0,0,0.0858,0.0853,0.0855,0.0827,0.082,0.0809,0.0783,0.0776,0.0768,0.0764,0.0738,0.0733,0.0712,0.0706,0.0704,0.0712,0.0687,0.0693,0.0694,0.0695,0.0732,0.0737,0.0741,0,0,0,0,0,0.086,0.0868,0.0856,0.0851,0.0822,0.081,0.0806,0.0781,0.0769,0.0771,0.0753,0.0733,0.0713,0.0706,0.0703,0.0712,0.0692,0.0694,0.0695,0.073,0.0736,0.0741,0,0,0,0,0,0,0.0899,0.0864,0.085,0.0848,0.0832,0.0803,0.0805,0.0788,0.0775,0.0772,0.0743,0.0737,0.0737,0.0723,0.0716,0.0719,0.07,0.0701,0.0728,0.0733,0.0737,0.0741,0.0686,0,0,0,0,0,0.0908,0.09,0.0869,0.0871,0.0864,0.0836,0.083,0.0812,0.0794,0.0788,0.0768,0.0752,0.0743,0.0737,0.0726,0.073,0.0724,0.0734,0.0738,0.0742,0.0744,0.0746,0.0751,0.0702,0.0702,0.0702,0,0,0.0925,0.0905,0.0902,0.0879,0.0864,0.0858,0.0831,0.0824,0.082,0.0787,0.0782,0.0767,0.0747,0.0748,0.0747,0.0737,0.0756,0.0744,0.0747,0.0747,0.0748,0.0753,0.0757,0.0703,0.0703,0.0703,0,0,0.0954,0.0937,0.0937,0.0923,0.0901,0.0883,0.0883,0.0856,0.0845,0.084,0.0815,0.0809,0.0793,0.078,0.0771,0.0796,0.0779,0.0793,0.0816,0.0819,0.0823,0.0826,0.0836,0.084,0.0795,0.0795,0.0795,0,0.0978,0.0967,0.094,0.0936,0.0927,0.0896,0.0897,0.0885,0.0861,0.0856,0.0845,0.0824,0.0808,0.0806,0.0812,0.0805,0.0806,0.0797,0.0824,0.0827,0.083,0.0839,0.0843,0.0797,0.0797,0.0797,0.0796,0,0.0999,0.0992,0.0995,0.0972,0.0964,0.0962,0.0935,0.093,0.0913,0.0897,0.0892,0.0872,0.0858,0.0855,0.0839,0.0851,0.0845,0.083,0.081,0.0837,0.0846,0.0849,0.08,0.0799,0.0799,0.0798,0,0,0.1051,0.1014,0.1016,0.1006,0.098,0.0974,0.0972,0.0957,0.0954,0.0938,0.0936,0.0923,0.0908,0.0899,0.0881,0.0883,0.0905,0.0867,0.0866,0.0876,0.0919,0.0932,0.0937,0.0893,0.0894,0.0894,0.0921,0,0.1077,0.107,0.1046,0.1047,0.104,0.1012,0.1009,0.0994,0.0978,0.0971,0.0953,0.0945,0.0926,0.092,0.092,0.0903,0.0914,0.09,0.0892,0.0892,0.0899,0.0941,0.0954,0.0981,0.0924,0.0925,0.0925,0,0.1106,0.1092,0.1093,0.1068,0.1064,0.1063,0.1048,0.1041,0.1023,0.1011,0.1001,0.0981,0.0977,0.0959,0.0954,0.0945,0.0941,0.0931,0.0932,0.0931,0.0911,0.0943,0.0989,0.0994,0.093,0.0929,0.0929,0,0.1146,0.1128,0.1126,0.1118,0.1089,0.1089,0.1077,0.1058,0.1051,0.1038,0.1033,0.102,0.1014,0.1004,0.0982,0.097,0.0981,0.0959,0.0972,0.0973,0.0977,0.0977,0.1024,0.0971,0.0971,0.0971,0.0971,0,0.1178,0.1179,0.1144,0.1143,0.1144,0.1117,0.1119,0.1104,0.1088,0.1084,0.1058,0.1055,0.1025,0.1019,0.1001,0.1001,0.0997,0.0989,0.0984,0.0992,0.0993,0.099,0.0988,0.0972,0.0972,0.0972,0.0971,0,0.1223,0.1199,0.1196,0.1168,0.1162,0.1164,0.1141,0.1139,0.1122,0.1118,0.1115,0.1088,0.108,0.1056,0.1041,0.1029,0.1035,0.1025,0.1041,0.1039,0.1053,0.1053,0.11,0.1106,0.1048,0.1049,0.1049,0,0.1246,0.1247,0.1219,0.1215,0.1204,0.1197,0.119,0.1163,0.1157,0.1137,0.1138,0.1128,0.1118,0.1106,0.1086,0.1075,0.1066,0.1083,0.1064,0.1072,0.1068,0.1069,0.1069,0.1088,0.1089,0.1089,0.109,0,0.1289,0.1277,0.1268,0.1255,0.1247,0.1236,0.1223,0.1221,0.1191,0.1185,0.1176,0.1169,0.1154,0.1145,0.1131,0.1119,0.11,0.1096,0.1098,0.1107,0.1117,0.1113,0.1054,0.1095,0.1094,0.1094,0.1094,0.1094,0.1325,0.1325,0.1306,0.1297,0.1284,0.1273,0.127,0.1253,0.1245,0.1231,0.1215,0.1209,0.1191,0.117,0.116,0.1155,0.1145,0.1148,0.1149,0.1151,0.1155,0.1116,0.1152,0.1152,0.1152,0.1151,0.1151,0,0.1368,0.1354,0.1346,0.1329,0.1322,0.1304,0.1289,0.1285,0.1279,0.1265,0.1256,0.1246,0.1237,0.1216,0.1205,0.1205,0.1196,0.1203,0.1204,0.1202,0.1164,0.1164,0.1211,0.1211,0.1211,0.1211,0.1211,0.1211,0.139,0.1389,0.1375,0.1369,0.1355,0.1348,0.1341,0.1331,0.1319,0.131,0.1302,0.1288,0.1271,0.1259,0.125,0.1244,0.1242,0.1252,0.1244,0.121,0.1204,0.1199,0.1198,0.1252,0.1252,0.1282,0.1282,0.1283]},{"header":{"parameterUnit":"m.s-1","parameterCategory":1,"la1":30.2991,"la2":30.254,"lo1":-89.0895,"lo2":-89.0444,"dx":0.0017,"dy":0.0017,"nx":28,"ny":28,"refTime":"2023-01-10T15:00:00:Z","depth":0,"parameterNumber":3,"parameterNumberName":"V-component_of_WINDS"},"data":[0,0,0,0,0,0,0,0,0,0,0,0,0,0,0,0,0,0,0,0,0,0,0,0,0,0,0,0,0,0,0,0,0,0,0,0,0,0,0,0,0,0,0,0,0,0,0,0,0,0,0,0,0,0,0,0,0,0,2.9874,2.9874,0,2.9879,2.9879,2.9879,2.9866,2.9866,2.9865,2.9865,2.9869,2.9869,2.987,0,0,0,0,0,0,0,0,0,0,0,0,0,2.9855,2.9855,2.9874,2.9874,2.9874,2.9879,2.9879,2.9879,2.9866,2.9866,2.9865,2.9865,2.9869,2.9869,2.987,0,0,0,0,0,0,0,0,0,0,0,0,0,2.9862,2.9855,2.9874,2.9869,2.9868,2.9879,2.9879,2.9879,2.9866,2.9866,2.9865,2.9865,2.9868,2.9869,2.987,2.9886,0,0,2.9872,2.9872,0,0,0,0,0,0,0,0,2.9861,2.9862,2.9869,2.9869,2.9869,2.9871,2.9873,2.9881,2.9866,2.9867,2.9865,2.9864,2.987,2.9871,2.9873,2.9886,2.9886,2.9872,2.9872,2.9873,2.9873,0,0,0,0,0,0,0,2.9861,2.9862,2.9876,2.987,2.9869,2.9866,2.9866,2.9875,2.9872,2.9867,2.9866,2.9867,2.987,2.9872,2.9873,2.9886,2.9872,2.9873,2.9873,2.9873,2.9913,2.9914,0,0,0,0,0,0,2.9861,2.9862,2.9876,2.9876,2.9863,2.9867,2.9867,2.9871,2.9872,2.9871,2.9867,2.9866,2.9871,2.9872,2.9873,2.9892,2.9873,2.9873,2.9874,2.9913,2.9914,2.9914,0,0,0,0,0,0,2.9861,2.9862,2.9876,2.9869,2.987,2.9868,2.9872,2.9871,2.9874,2.9872,2.9871,2.987,2.9871,2.9872,2.9883,2.9892,2.9874,2.9874,2.9912,2.9913,2.9914,2.9931,0,0,0,0,0,0,2.986,2.9862,2.9868,2.9869,2.9871,2.9886,2.9873,2.9872,2.9875,2.9874,2.9874,2.9874,2.987,2.9882,2.9883,2.9893,2.9875,2.9911,2.9912,2.9914,2.9929,2.9932,2.9934,0,0,0,0,0,2.9859,2.9873,2.9869,2.9871,2.9878,2.9886,2.9887,2.9883,2.9876,2.9882,2.9881,2.9874,2.9891,2.9883,2.9885,2.9894,2.9911,2.9912,2.9913,2.9928,2.9931,2.9934,0,0,0,0,0,0,2.9873,2.9872,2.9868,2.9882,2.9884,2.9884,2.9892,2.9887,2.9891,2.9889,2.9884,2.9884,2.9896,2.9896,2.9888,2.991,2.9899,2.9901,2.991,2.9913,2.9916,2.9916,2.9875,0,0,0,0,0,2.9877,2.9884,2.9884,2.9896,2.9897,2.9894,2.9898,2.9894,2.9896,2.9897,2.9897,2.9899,2.9905,2.9909,2.9914,2.9929,2.9929,2.9936,2.9939,2.9941,2.9943,2.9952,2.9955,2.9919,2.9919,2.9919,0,0,2.9887,2.9887,2.9892,2.9898,2.99,2.9907,2.9895,2.9903,2.9909,2.9898,2.9909,2.9909,2.9911,2.9924,2.993,2.9925,2.9953,2.9943,2.9945,2.9945,2.9953,2.9957,2.996,2.992,2.992,2.992,0,0,2.9908,2.9909,2.992,2.9921,2.9924,2.9922,2.9925,2.9926,2.9925,2.9936,2.9929,2.9935,2.9945,2.9947,2.9949,2.9972,2.9966,2.9973,2.9987,2.9996,2.9999,3.0001,3.001,3.0013,2.9975,2.9975,2.9975,0,2.9919,2.993,2.9925,2.9935,2.9938,2.9929,2.994,2.9942,2.9946,2.9948,2.9942,2.9955,2.9956,2.997,2.9975,2.9977,2.998,2.9974,2.9999,3.0001,3.0003,3.0012,3.0015,2.9976,2.9976,2.9976,2.9976,0,2.9944,2.9952,2.996,2.9965,2.9969,2.9979,2.9976,2.9981,2.9977,2.9976,2.9987,2.9988,2.9993,2.9996,2.9992,3.001,3.0007,3.0,2.9989,3.0008,3.0016,3.0019,2.9978,2.9977,2.9977,2.9977,0,0,2.9974,2.9977,2.998,2.9982,2.9985,2.9991,3.0,3.0006,3.001,3.0013,3.0022,3.003,3.0024,3.0027,3.0023,3.0031,3.0049,3.0023,3.0023,3.0028,3.007,3.0076,3.0079,3.0045,3.0046,3.0046,3.007,0,2.9995,3.0013,3.0009,3.0026,3.0033,3.0025,3.0034,3.0036,3.0035,3.0041,3.004,3.0047,3.0038,3.004,3.0047,3.0046,3.0058,3.0044,3.0053,3.0054,3.0054,3.0083,3.0089,3.0111,3.0073,3.0073,3.0074,0,3.0023,3.0028,3.0046,3.0048,3.0051,3.0058,3.0064,3.007,3.0072,3.0071,3.0075,3.007,3.0079,3.0068,3.0081,3.0072,3.0075,3.0076,3.0076,3.0078,3.0065,3.0086,3.0118,3.0122,3.0078,3.0078,3.0077,0,3.0044,3.0055,3.0067,3.0069,3.0072,3.0077,3.0079,3.0081,3.0085,3.0089,3.0092,3.0097,3.01,3.0105,3.0101,3.0093,3.0115,3.0104,3.0115,3.0115,3.0121,3.012,3.0155,3.0122,3.0122,3.0122,3.0122,0,3.0069,3.008,3.0077,3.0084,3.0097,3.0092,3.0105,3.0105,3.0107,3.0115,3.0108,3.0115,3.011,3.0116,3.0114,3.0125,3.0127,3.0126,3.0126,3.0127,3.0128,3.013,3.0129,3.0123,3.0122,3.0122,3.0122,0,3.0094,3.0092,3.0105,3.0107,3.0108,3.0117,3.0118,3.0125,3.0124,3.0134,3.0135,3.0134,3.0141,3.0138,3.0146,3.0144,3.016,3.0156,3.0159,3.0158,3.017,3.017,3.0208,3.0213,3.0176,3.0177,3.0177,0,3.0111,3.0119,3.0122,3.0127,3.0129,3.0136,3.0141,3.0137,3.0141,3.0145,3.0152,3.0159,3.0165,3.0177,3.0176,3.0182,3.018,3.0193,3.0181,3.0182,3.0181,3.0181,3.0182,3.0195,3.0196,3.0196,3.0197,0,3.014,3.0139,3.0146,3.0152,3.0158,3.0162,3.0167,3.0171,3.0167,3.0173,3.0181,3.0185,3.0193,3.0201,3.0206,3.0207,3.0201,3.02,3.0203,3.0206,3.0207,3.0207,3.0166,3.02,3.0199,3.0199,3.0199,3.0199,3.0162,3.017,3.0173,3.0181,3.0184,3.0188,3.0195,3.0195,3.0202,3.0209,3.0206,3.0215,3.0218,3.0225,3.0227,3.0234,3.0229,3.0233,3.0234,3.0236,3.0238,3.0205,3.0235,3.0235,3.0235,3.0235,3.0234,0,3.0192,3.0194,3.0201,3.0208,3.0214,3.0208,3.0213,3.0218,3.0227,3.023,3.0236,3.0245,3.0252,3.0252,3.0259,3.0265,3.0262,3.0267,3.0266,3.0267,3.0241,3.0238,3.0268,3.0268,3.0268,3.0268,3.0268,3.0268,3.0208,3.0221,3.0221,3.0235,3.0237,3.0246,3.025,3.0253,3.0256,3.0267,3.0273,3.0273,3.0275,3.0282,3.0288,3.0288,3.0291,3.0297,3.0296,3.0272,3.0269,3.0265,3.0263,3.0297,3.0297,3.032,3.0321,3.0321]}]]